Regional Weather Roundup
Issued by NWS

Home | Current Version | Previous Version | Graphics & Text | Print | Product List | Glossary On
Versions: 1 2 3 4 5 6 7 8 9 10 11 12 13 14 15 16 17 18 19 20 21 22 23 24 25 26 27 28 29 30 31 32 33 34 35
000
ASUS45 KSLC 221010
RWRUT

UTAH REGIONAL WEATHER ROUNDUP
NATIONAL WEATHER SERVICE SALT LAKE CITY UT
400 AM MDT WED OCT 22 2014

UTZ001>011-023>025-221100-

NORTHERN UTAH

CITY           SKY/WX    TMP DP  RH WIND       PRES   REMARKS
BRIGHAM CITY   CLEAR     37  29  74 NW3       30.13S
HILL AFB       CLEAR     41  28  60 SE14      30.12S
LOGAN          CLEAR     32  28  85 CALM      30.15S
OGDEN          CLEAR     37  33  85 SW5       30.12R WCI  33
PROVO AIRPORT  CLEAR     39  30  70 SE8       30.12S WCI  34
SALT LAKE CITY CLEAR     41  34  76 CALM      30.12R
VERNAL         CLEAR     42  38  85 MISG      30.09S
WENDOVER       PTCLDY    41  28  60 CALM      30.13S
HEBER CITY     CLEAR     30  27  86 CALM      30.15S
WEST JORDAN    CLEAR     39  34  81 CALM      30.13S

$$

UTZ012>022-026-027-221100-

SOUTHERN/CENTRAL UTAH

CITY           SKY/WX    TMP DP  RH WIND       PRES   REMARKS
BLANDING       PTCLDY    48  40  73 NE6       30.16S
BRYCE CANYON   PTCLDY    32  30  92 W8        30.18S WCI  25
CEDAR CITY     PTCLDY    41  32  70 SE6       30.11R
DELTA          PTCLDY    39  23  53 CALM      30.12R
HANKSVILLE       N/A     48  34  57 CALM      30.05R
MILFORD        PTCLDY    37  25  61 CALM      30.11R
MOAB/CYNLANDS  CLEAR     52  42  69 VRB3      30.01R
PRICE          PTCLDY    44  36  73 N7        30.08R
ST GEORGE      SUNNY     59  36  41 S3        29.99R

$$

REGIONAL REPORTS     COLORADO/ARIZONA

CITY           SKY/WX    TMP DP  RH WIND       PRES   REMARKS
CRAIG, CO      CLOUDY    42  38  85 SE6       30.12F
GRAND JUNCTION CLEAR     47  42  83 CALM      30.06R
RIFLE          LGT RAIN  47  44  90 NE5       30.13F
MONTROSE       MOCLDY    47  41  80 CALM      30.13R
CORTEZ         CLEAR     39  37  92 E5        30.11S
PAGE, AZ       MOCLDY    59  38  45 S3        30.03R
GRAND CANYON   CLEAR     33  27  78 CALM      30.17R
KINGMAN        CLEAR     54  40  59 S5        29.98S
FLAGSTAFF      PTCLDY    37  34  89 CALM      30.18S

$$

REGIONAL REPORTS    NEVADA/IDAHO/WYOMING

CITY           SKY/WX    TMP DP  RH WIND       PRES   REMARKS
LAS VEGAS, NV  PTCLDY    64  28  25 S9        29.87R
ELY            MOCLDY    26  10  50 S8        30.16R WCI  18
ELKO           MOCLDY    32  18  56 E5        30.14R WCI  27
POCATELLO, ID  CLEAR     34  31  88 CALM      30.13S
BURLEY         CLEAR     35  28  75 SW6       30.12R WCI  30
EVANSTON, WY   CLEAR     34  25  69 CALM      30.16R
ROCK SPRINGS   CLEAR     35  26  69 NW5       30.15R WCI  31

$$



USA.gov is the U.S. government's official web portal to all federal, state and local government web resources and services.